Weather History for KGON - October, 2014

Change the Weather History Date:

Wednesday, October 22, 2014

  Actual Average Record
Temperature  
Mean Temperature 54 °F -  
Max Temperature 57 °F 61 °F 74 °F (1975)
Min Temperature 50 °F 40 °F 25 °F (1974)
Degree Days  
Heating Degree Days 12    
Growing Degree Days 4 (Base 50)    
Moisture  
Dew Point 51 °F    
Average Humidity 91    
Maximum Humidity 97    
Minimum Humidity 86    
Precipitation  
Precipitation 0.36 in - - ()
Sea Level Pressure  
Sea Level Pressure 29.78 in    
Wind  
Wind Speed 17 mph (NNE)    
Max Wind Speed 28 mph    
Max Gust Speed 44 mph    
Visibility 9 miles    
Events Rain , Thunderstorm    
Averages and records for this station are not official NWS values.
T = Trace of Precipitation, MM = Missing Value Source: NWS Daily Summary

Daily Weather History Graph

Daily Weather History Graph

Search for Another Location

Airport or City:

Trip Planner

Search our weather history database for the weather conditions in past years. The results will help you decide how hot, cold, wet, or windy it might be!

Date:

Astronomy

Oct. 22, 2014 Rise Set
Actual Time 7:07 AM EDT 5:56 PM EDT
Civil Twilight 6:39 AM EDT 6:24 PM EDT
Nautical Twilight 6:07 AM EDT 6:57 PM EDT
Astronomical Twilight 5:35 AM EDT 7:29 PM EDT
Moon 5:45 AM EDT (10/22) 5:22 PM EDT (10/22)
Length of Visible Light 11h 45m
Length of Day
10h 48m
Waning Crescent, 2% of the Moon is Illuminated
Oct 22
Waning Crescent
Oct 23
New
Oct 30
First Quarter
Nov 6
Full
Nov 14
Last Quarter

Hourly Weather History & Observations

Time (EDT) Temp. Dew Point Humidity Pressure Visibility Wind Dir Wind Speed Gust Speed Precip Events Conditions
12:24 AM 57.0 °F 54.0 °F 89% 29.93 in 10.0 mi NE 12.7 mph - N/A   Mostly Cloudy
12:56 AM 55.9 °F 53.1 °F 90% 29.91 in 10.0 mi NNE 11.5 mph - N/A   Scattered Clouds
1:47 AM 55.4 °F 53.6 °F 94% 29.91 in 10.0 mi NNE 15.0 mph - N/A   Mostly Cloudy
1:56 AM 55.9 °F 53.1 °F 90% 29.91 in 10.0 mi NE 18.4 mph - N/A   Mostly Cloudy
2:56 AM 55.9 °F 53.1 °F 90% 29.91 in 10.0 mi NE 11.5 mph - N/A   Overcast
3:56 AM 55.4 °F 53.6 °F 94% 29.91 in 10.0 mi NNE 11.5 mph - N/A   Overcast
4:56 AM 55.0 °F 52.0 °F 89% 29.92 in 10.0 mi NNE 11.5 mph - N/A   Overcast
5:56 AM 54.0 °F 51.1 °F 90% 29.92 in 10.0 mi NNE 11.5 mph - N/A   Overcast
6:56 AM 53.1 °F 50.0 °F 89% 29.91 in 10.0 mi NNE 16.1 mph - N/A   Mostly Cloudy
7:56 AM 54.0 °F 51.1 °F 90% 29.92 in 10.0 mi North 13.8 mph - N/A   Overcast
8:56 AM 55.0 °F 51.1 °F 86% 29.94 in 10.0 mi NNE 12.7 mph - N/A   Mostly Cloudy
9:56 AM 55.0 °F 52.0 °F 89% 29.92 in 10.0 mi NNE 12.7 mph - N/A   Overcast
10:56 AM 57.0 °F 53.1 °F 87% 29.92 in 10.0 mi NNE 16.1 mph 19.6 mph N/A   Overcast
11:56 AM 55.4 °F 51.8 °F 88% 29.90 in 7.0 mi NE 23.0 mph 33.4 mph N/A Rain Light Rain
12:56 PM 55.9 °F 52.0 °F 87% 29.88 in 10.0 mi NNE 13.8 mph 31.1 mph 0.00 in Rain Light Rain
1:56 PM 54.0 °F 50.0 °F 86% 29.86 in 10.0 mi NNE 21.9 mph 32.2 mph 0.00 in   Overcast
2:56 PM 54.0 °F 50.0 °F 86% 29.83 in 10.0 mi NNE 21.9 mph 35.7 mph 0.00 in   Overcast
3:56 PM 52.0 °F 50.0 °F 93% 29.80 in 6.0 mi NNE 20.7 mph 34.5 mph 0.01 in Rain Light Rain
4:56 PM 52.0 °F 48.9 °F 89% 29.77 in 4.0 mi NNE 24.2 mph 36.8 mph 0.00 in Rain Light Rain
5:56 PM 51.1 °F 48.0 °F 89% 29.73 in 10.0 mi NNE 24.2 mph 38.0 mph 0.02 in Rain Light Rain
6:56 PM 50.0 °F 48.0 °F 93% 29.73 in 4.0 mi NNE 21.9 mph 39.1 mph 0.04 in Rain Rain
7:56 PM 50.0 °F 48.9 °F 96% 29.68 in 7.0 mi North 24.2 mph 36.8 mph 0.09 in Rain Light Rain
8:03 PM 50.0 °F 48.9 °F 96% 29.67 in 8.0 mi North 25.3 mph 35.7 mph 0.00 in Rain Light Rain
8:17 PM 50.0 °F 48.9 °F 96% 29.65 in 7.0 mi North 23.0 mph 38.0 mph 0.02 in Rain , Thunderstorm Light Thunderstorms and Rain
8:34 PM 51.1 °F 48.9 °F 92% 29.62 in 9.0 mi North 25.3 mph 43.7 mph 0.02 in Rain Light Rain
8:56 PM 50.0 °F 48.9 °F 96% 29.62 in 6.0 mi North 25.3 mph 39.1 mph 0.05 in Rain Light Rain
9:12 PM 51.1 °F 48.9 °F 92% 29.64 in 5.0 mi NNE 27.6 mph 40.3 mph 0.03 in Rain Rain
9:33 PM 52.0 °F 51.1 °F 97% 29.69 in 8.0 mi ENE 16.1 mph - 0.07 in Rain Light Rain
9:49 PM 53.1 °F 50.0 °F 89% 29.68 in 10.0 mi NNE 25.3 mph 36.8 mph 0.07 in Rain Light Rain
9:56 PM 53.1 °F 50.0 °F 89% 29.70 in 10.0 mi NNE 26.5 mph 35.7 mph 0.07 in Rain , Thunderstorm Light Thunderstorms and Rain
10:03 PM 53.1 °F 50.0 °F 89% 29.69 in 5.0 mi NNE 24.2 mph 40.3 mph 0.05 in Rain , Thunderstorm Heavy Thunderstorms and Rain
10:20 PM 52.0 °F 50.0 °F 93% 29.70 in 8.0 mi NNE 19.6 mph 38.0 mph 0.07 in Rain Light Rain
10:27 PM 52.0 °F 50.0 °F 93% 29.70 in 7.0 mi NNE 20.7 mph 29.9 mph 0.08 in Rain , Thunderstorm Rain
10:44 PM 52.0 °F 50.0 °F 93% 29.69 in 10.0 mi NNE 21.9 mph 29.9 mph 0.08 in Rain , Thunderstorm Light Thunderstorms and Rain
10:53 PM 51.8 °F 50.0 °F 94% 29.69 in 9.0 mi NNE 23.0 mph 33.4 mph 0.08 in Rain , Thunderstorm Light Rain
10:56 PM 52.0 °F 50.0 °F 93% 29.70 in 9.0 mi NNE 21.9 mph 33.4 mph 0.08 in Rain , Thunderstorm Light Rain
11:24 PM 51.1 °F 50.0 °F 96% 29.68 in 7.0 mi NNE 23.0 mph 31.1 mph 0.00 in Rain Light Rain
11:42 PM 52.0 °F 50.0 °F 93% 29.68 in 10.0 mi NNE 21.9 mph 35.7 mph 0.00 in Rain Light Rain
11:56 PM 52.0 °F 50.0 °F 93% 29.67 in 10.0 mi NNE 27.6 mph 36.8 mph 0.00 in   Overcast